Flag for Belgium Weather past 2 weeks in Kortrijk, Belgium

Now
59 °F

Passing clouds.


Feels Like: 55 °F
Forecast: 50 / 62 °F
Wind: 23 mph from Southwest

Location: Lille Airport

Current Time: May 6, 2015 at 7:35:29 PM

Latest Report: May 6, 2015 at 7:00 PM


Visibility: N/A

Pressure: 29.86 "Hg

Humidity: 51%

Dew point: 41 °F

Location of KortrijkLocation

Historic Weather in Kortrijk — Graph

°F

Kortrijk temperature yesterday

Maximum temperature yesterday: 68 °F (at 11:00 AM)
Minimum temperature yesterday: 55 °F (at 11:00 PM)
Average temperature yesterday: 61 °F

Past Weeks' High & Low Weather Summary

 TemperatureHumidityPressure
High72 °F (Apr 24, 2:00 PM)100% (Apr 24, 6:00 AM)30.48 "Hg (Apr 24, 6:00 AM)
Low36 °F (Apr 28, 3:30 AM)26% (Apr 28, 5:00 PM)29.30 "Hg (May 5, 6:00 AM)
Average53 °F71%29.86 "Hg
* Reported Apr 21 6:00 PM — May 6 6:30 PM, Kortrijk, Weather by CustomWeather, © 2015

Note: Actual official high and low records may vary slightly from our data, if they occured in-between our weather recording intervals... More about our weather records

Advertising

Kortrijk weather history for previous 24 hours

 ConditionsComfort  
Time TempWeatherWind HumidityBarometerVisibility
6:30 PM
Wed, May 6
61 °FScattered clouds.23 mph45%29.86 "HgN/A
6:00 PM61 °FScattered clouds.25 mph42%29.86 "HgN/A
5:30 PM61 °FScattered clouds.22 mph52%29.83 "HgN/A
5:00 PM59 °FScattered clouds.24 mph59%29.83 "HgN/A
4:30 PM61 °FScattered clouds.23 mph52%29.83 "HgN/A
4:00 PM59 °FScattered clouds.20 mph59%29.83 "HgN/A
3:30 PM54 °FScattered clouds.26 mph77%29.83 "HgN/A
3:00 PM57 °FSprinkles. Scattered clouds.18 mph63%29.83 "HgN/A
2:30 PM54 °FScattered clouds.21 mph72%29.83 "HgN/A
2:00 PM59 °FScattered clouds.25 mph55%29.80 "HgN/A
1:30 PM61 °FScattered clouds.24 mph52%29.80 "HgN/A
1:00 PM59 °FScattered clouds.23 mph55%29.80 "HgN/A
12:30 PM59 °FScattered clouds.23 mph55%29.80 "HgN/A
12:00 PM59 °FScattered clouds.23 mph55%29.80 "HgN/A
11:30 AM57 °FScattered clouds.24 mph59%29.80 "HgN/A
11:00 AM57 °FScattered clouds.23 mph63%29.80 "HgN/A
10:30 AM57 °FScattered clouds.24 mph63%29.80 "HgN/A
10:00 AM55 °FScattered clouds.22 mph67%29.80 "HgN/A
9:30 AM54 °FScattered clouds.23 mph72%29.80 "HgN/A
9:00 AM54 °FPassing clouds.21 mph72%29.80 "HgN/A
8:30 AM52 °FPassing clouds.21 mph77%29.80 "HgN/A
8:00 AM50 °FPassing clouds.21 mph82%29.80 "HgN/A
7:30 AM50 °FSunny.18 mph76%29.77 "Hg10 mi
7:00 AM50 °FClear.17 mph76%29.77 "Hg10 mi
6:30 AM50 °FClear.16 mph76%29.77 "Hg10 mi
6:00 AM50 °FClear.14 mph76%29.77 "Hg10 mi
5:00 AM50 °FClear.14 mph76%29.77 "Hg10 mi
4:30 AM50 °FClear.14 mph76%29.77 "HgN/A
4:00 AM50 °FClear.16 mph76%29.77 "HgN/A
3:30 AM50 °FClear.14 mph71%29.77 "HgN/A
3:00 AM52 °FClear.15 mph67%29.77 "HgN/A
2:30 AM52 °FClear.16 mph67%29.80 "HgN/A
2:00 AM52 °FClear.15 mph67%29.80 "HgN/A
1:30 AM54 °FClear.14 mph63%29.80 "HgN/A
1:00 AM54 °FClear.13 mph63%29.80 "Hg10 mi
12:30 AM54 °FClear.9 mph67%29.77 "Hg10 mi
12:00 AM55 °FClear.13 mph59%29.77 "Hg10 mi
11:00 PM
Tue, May 5
55 °FClear.13 mph63%29.77 "Hg10 mi
10:30 PM57 °FClear.12 mph59%29.77 "Hg10 mi
9:30 PM59 °FSunny.13 mph55%29.74 "Hg10 mi
9:00 PM59 °FSunny.12 mph51%29.71 "Hg10 mi
8:30 PM61 °FPassing clouds.16 mph45%29.71 "HgN/A
8:00 PM63 °FPassing clouds.15 mph39%29.71 "HgN/A
7:30 PM64 °FSunny.17 mph40%29.71 "Hg10 mi
7:00 PM63 °FPassing clouds.20 mph42%29.68 "HgN/A
Weather by CustomWeather, © 2015

See weather overviewHow to use our weather pages